| time (UTC) | temp F | wind direction | speed MPH | gust MPH | rain 1hr in | rain 24hr in | rain mn in | humidity % | barometer mb |
| 20260506215030 | 82 | 153 | 7.0 | 14.0 | 0.00 | 0.00 | 0.00 | 85 | 1007.8 |
| 20260506214530 | 82 | 182 | 7.0 | 14.0 | 0.00 | 0.00 | 0.00 | 85 | 1007.8 |
| 20260506214031 | 82 | 164 | 8.0 | 14.0 | 0.00 | 0.00 | 0.00 | 85 | 1007.9 |
| 20260506213801 | 82 | 0 | 9.0 | 15.0 | 0.00 | 0.00 | 0.00 | 85 | 1007.8 |
| 20260506213036 | 82 | 0 | 9.0 | 17.0 | 0.00 | 0.00 | 0.00 | 85 | 1007.8 |
| 20260506212535 | 82 | 154 | 10.0 | 17.0 | 0.00 | 0.00 | 0.00 | 85 | 1007.7 |
| 20260506212032 | 82 | 148 | 11.0 | 16.0 | 0.00 | 0.00 | 0.00 | 85 | 1007.8 |
| 20260506211530 | 83 | 172 | 10.0 | 16.0 | 0.00 | 0.00 | 0.00 | 84 | 1007.9 |
| 20260506211030 | 83 | 153 | 9.0 | 14.0 | 0.00 | 0.00 | 0.00 | 83 | 1007.9 |
| 20260506210530 | 84 | 166 | 7.0 | 14.0 | 0.00 | 0.00 | 0.00 | 83 | 1008.0 |
| 20260506210253 | 84 | 192 | 6.0 | 11.0 | 0.00 | 0.00 | 0.00 | 82 | 1008.0 |
| 20260506205520 | 85 | 200 | 6.0 | 11.0 | 0.00 | 0.00 | 0.00 | 81 | 1008.0 |
| 20260506205014 | 85 | 184 | 6.0 | 10.0 | 0.00 | 0.00 | 0.00 | 80 | 1008.0 |
| 20260506204734 | 86 | 160 | 6.0 | 11.0 | 0.00 | 0.00 | 0.00 | 79 | 1008.0 |
| 20260506204008 | 86 | 201 | 7.0 | 14.0 | 0.00 | 0.00 | 0.00 | 78 | 1008.0 |
| 20260506203732 | 86 | 159 | 8.0 | 14.0 | 0.00 | 0.00 | 0.00 | 79 | 1007.9 |
| 20260506203235 | 87 | 123 | 7.0 | 13.0 | 0.00 | 0.00 | 0.00 | 77 | 1008.0 |
| 20260506202506 | 87 | 139 | 7.0 | 13.0 | 0.00 | 0.00 | 0.00 | 78 | 1007.9 |
| 20260506202235 | 87 | 220 | 6.0 | 13.0 | 0.00 | 0.00 | 0.00 | 77 | 1007.9 |
| 20260506201506 | 87 | 181 | 6.0 | 12.0 | 0.00 | 0.00 | 0.00 | 78 | 1008.0 |
| 20260506201006 | 87 | 203 | 6.0 | 12.0 | 0.00 | 0.00 | 0.00 | 79 | 1007.9 |
| 20260506200734 | 86 | 197 | 6.0 | 12.0 | 0.00 | 0.00 | 0.00 | 78 | 1008.0 |
| 20260506200237 | 86 | 192 | 6.0 | 11.0 | 0.00 | 0.00 | 0.00 | 80 | 1008.1 |
| 20260506195506 | 86 | 159 | 6.0 | 11.0 | 0.00 | 0.00 | 0.00 | 81 | 1008.2 |
| 20260506195006 | 85 | 171 | 6.0 | 10.0 | 0.00 | 0.00 | 0.00 | 82 | 1008.2 |
| 20260506194506 | 85 | 150 | 6.0 | 12.0 | 0.00 | 0.00 | 0.00 | 83 | 1008.3 |
| 20260506194006 | 85 | 222 | 6.0 | 12.0 | 0.00 | 0.00 | 0.00 | 83 | 1008.6 |
| 20260506193507 | 85 | 196 | 7.0 | 14.0 | 0.00 | 0.00 | 0.00 | 82 | 1008.5 |
| 20260506193005 | 85 | 169 | 8.0 | 14.0 | 0.00 | 0.00 | 0.00 | 82 | 1008.6 |
| 20260506192506 | 85 | 209 | 7.0 | 14.0 | 0.00 | 0.00 | 0.00 | 83 | 1008.8 |
| 20260506192005 | 84 | 204 | 7.0 | 14.0 | 0.00 | 0.00 | 0.00 | 84 | 1008.8 |
| 20260506191505 | 83 | 168 | 6.0 | 14.0 | 0.00 | 0.00 | 0.00 | 84 | 1009.0 |
| 20260506191006 | 83 | 207 | 6.0 | 14.0 | 0.00 | 0.00 | 0.00 | 84 | 1009.0 |
| 20260506190731 | 83 | 182 | 6.0 | 12.0 | 0.00 | 0.00 | 0.00 | 85 | 1009.1 |
| 20260506190713 | 83 | 175 | 6.0 | 13.0 | 0.00 | 0.00 | 0.00 | 85 | 1009.1 |
| 20260506185730 | 83 | 183 | 5.0 | 10.0 | 0.00 | 0.00 | 0.00 | 84 | 1009.2 |
| 20260506185500 | 82 | 209 | 5.0 | 10.0 | 0.00 | 0.00 | 0.00 | 86 | 1009.3 |
| 20260506184502 | 82 | 153 | 5.0 | 12.0 | 0.00 | 0.00 | 0.00 | 86 | 1009.4 |
| 20260506184227 | 82 | 189 | 5.0 | 12.0 | 0.00 | 0.00 | 0.00 | 86 | 1009.5 |
| 20260506183502 | 82 | 207 | 5.0 | 10.0 | 0.00 | 0.00 | 0.00 | 87 | 1009.5 |
| 20260506183001 | 82 | 153 | 5.0 | 12.0 | 0.00 | 0.00 | 0.00 | 86 | 1009.5 |
| 20260506182736 | 82 | 209 | 5.0 | 12.0 | 0.00 | 0.00 | 0.00 | 86 | 1009.5 |
| 20260506182001 | 82 | 0 | 4.0 | 9.0 | 0.00 | 0.00 | 0.00 | 86 | 1009.7 |
| 20260506181501 | 82 | 178 | 4.0 | 10.0 | 0.00 | 0.00 | 0.00 | 86 | 1009.6 |
| 20260506181001 | 82 | 208 | 5.0 | 10.0 | 0.00 | 0.00 | 0.00 | 87 | 1009.7 |
| 20260506180501 | 82 | 196 | 5.0 | 9.0 | 0.00 | 0.00 | 0.00 | 87 | 1009.8 |
| 20260506180000 | 82 | 166 | 4.0 | 9.0 | 0.00 | 0.00 | 0.00 | 87 | 1009.8 |
| 20260506175504 | 81 | 165 | 5.0 | 10.0 | 0.00 | 0.00 | 0.00 | 87 | 1009.9 |
| 20260506175004 | 81 | 192 | 5.0 | 10.0 | 0.00 | 0.00 | 0.00 | 87 | 1009.9 |
| 20260506174504 | 81 | 0 | 4.0 | 9.0 | 0.00 | 0.00 | 0.00 | 87 | 1009.8 |
| 20260506174004 | 81 | 212 | 4.0 | 9.0 | 0.00 | 0.00 | 0.00 | 88 | 1009.8 |
| 20260506173502 | 81 | 179 | 4.0 | 9.0 | 0.00 | 0.00 | 0.00 | 88 | 1009.8 |
| 20260506173002 | 81 | 132 | 5.0 | 8.0 | 0.00 | 0.00 | 0.00 | 88 | 1009.8 |
| 20260506172732 | 81 | 210 | 6.0 | 13.0 | 0.00 | 0.00 | 0.00 | 88 | 1009.7 |
| 20260506172004 | 81 | 161 | 8.0 | 13.0 | 0.00 | 0.00 | 0.00 | 88 | 1009.7 |
| 20260506171731 | 81 | 179 | 8.0 | 13.0 | 0.00 | 0.00 | 0.00 | 89 | 1009.7 |
| 20260506171002 | 81 | 165 | 7.0 | 12.0 | 0.00 | 0.00 | 0.00 | 89 | 1009.8 |
| 20260506170503 | 80 | 135 | 7.0 | 12.0 | 0.00 | 0.00 | 0.00 | 90 | 1009.8 |
| 20260506170001 | 80 | 0 | 8.0 | 12.0 | 0.00 | 0.00 | 0.00 | 90 | 1009.7 |
| 20260506165501 | 80 | 110 | 7.0 | 13.0 | 0.00 | 0.00 | 0.00 | 91 | 1009.8 |
| 20260506165001 | 80 | 174 | 8.0 | 13.0 | 0.00 | 0.00 | 0.00 | 90 | 1009.9 |
| 20260506164502 | 80 | 0 | 8.0 | 13.0 | 0.00 | 0.00 | 0.00 | 90 | 1009.9 |
| 20260506164001 | 80 | 0 | 7.0 | 13.0 | 0.00 | 0.00 | 0.00 | 90 | 1010.0 |
| 20260506163501 | 80 | 0 | 7.0 | 12.0 | 0.00 | 0.00 | 0.00 | 90 | 1009.8 |
| 20260506163001 | 80 | 140 | 8.0 | 14.0 | 0.00 | 0.00 | 0.00 | 90 | 1009.9 |
| 20260506162501 | 80 | 0 | 7.0 | 14.0 | 0.00 | 0.00 | 0.00 | 90 | 1009.8 |
| 20260506162001 | 79 | 111 | 7.0 | 10.0 | 0.00 | 0.00 | 0.00 | 91 | 1009.8 |
| 20260506161501 | 79 | 134 | 6.0 | 10.0 | 0.00 | 0.00 | 0.00 | 91 | 1009.8 |
| 20260506161001 | 79 | 118 | 6.0 | 11.0 | 0.00 | 0.00 | 0.00 | 92 | 1009.7 |
| 20260506160502 | 79 | 123 | 6.0 | 11.0 | 0.00 | 0.00 | 0.00 | 92 | 1009.6 |
| 20260506160000 | 79 | 116 | 5.0 | 9.0 | 0.00 | 0.00 | 0.00 | 92 | 1009.4 |
| 20260506155502 | 79 | 128 | 5.0 | 10.0 | 0.00 | 0.00 | 0.00 | 92 | 1009.5 |
| 20260506155453 | 79 | 159 | 5.0 | 10.0 | 0.00 | 0.00 | 0.00 | 92 | 1009.5 |
| 20260506154501 | 79 | 157 | 6.0 | 10.0 | 0.00 | 0.00 | 0.00 | 92 | 1009.4 |
| 20260506154000 | 79 | 157 | 6.0 | 11.0 | 0.00 | 0.00 | 0.00 | 92 | 1009.4 |
| 20260506153732 | 78 | 154 | 7.0 | 11.0 | 0.00 | 0.00 | 0.00 | 93 | 1009.4 |
| 20260506153238 | 78 | 141 | 7.0 | 11.0 | 0.00 | 0.00 | 0.00 | 93 | 1009.2 |
| 20260506152501 | 78 | 165 | 7.0 | 11.0 | 0.00 | 0.00 | 0.00 | 94 | 1009.1 |
| 20260506152000 | 78 | 155 | 7.0 | 11.0 | 0.00 | 0.00 | 0.00 | 94 | 1009.1 |
| 20260506151501 | 78 | 157 | 7.0 | 11.0 | 0.00 | 0.00 | 0.00 | 94 | 1009.1 |
| 20260506151234 | 78 | 161 | 5.0 | 10.0 | 0.00 | 0.00 | 0.00 | 94 | 1009.1 |
| 20260506150501 | 78 | 0 | 5.0 | 11.0 | 0.00 | 0.00 | 0.00 | 94 | 1009.1 |
| 20260506150001 | 78 | 0 | 6.0 | 11.0 | 0.00 | 0.00 | 0.00 | 94 | 1008.9 |
| 20260506145956 | 77 | 0 | 6.0 | 11.0 | 0.00 | 0.00 | 0.00 | 94 | 1009.0 |
| 20260506145003 | 77 | 128 | 5.0 | 9.0 | 0.00 | 0.00 | 0.00 | 95 | 1008.9 |
| 20260506144957 | 77 | 138 | 5.0 | 9.0 | 0.00 | 0.00 | 0.00 | 95 | 1008.9 |
| 20260506144003 | 77 | 123 | 5.0 | 8.0 | 0.00 | 0.00 | 0.00 | 95 | 1008.9 |
| 20260506143502 | 77 | 132 | 6.0 | 10.0 | 0.00 | 0.00 | 0.00 | 95 | 1008.7 |
| 20260506142955 | 77 | 136 | 6.0 | 10.0 | 0.00 | 0.00 | 0.00 | 95 | 1008.7 |
| 20260506142718 | 77 | 129 | 5.0 | 8.0 | 0.00 | 0.00 | 0.00 | 95 | 1008.7 |
| 20260506141943 | 77 | 121 | 4.0 | 7.0 | 0.00 | 0.00 | 0.00 | 96 | 1008.8 |
| 20260506141439 | 77 | 130 | 3.0 | 7.0 | 0.00 | 0.00 | 0.00 | 96 | 1008.8 |
| 20260506140939 | 77 | 104 | 3.0 | 6.0 | 0.00 | 0.00 | 0.00 | 96 | 1008.9 |
| 20260506140439 | 77 | 106 | 2.0 | 4.0 | 0.00 | 0.00 | 0.00 | 96 | 1008.8 |
| 20260506135939 | 77 | 123 | 2.0 | 4.0 | 0.00 | 0.00 | 0.00 | 96 | 1008.8 |
| 20260506135439 | 76 | 95 | 2.0 | 4.0 | 0.00 | 0.00 | 0.00 | 96 | 1008.7 |
| 20260506135209 | 76 | 80 | 2.0 | 4.0 | 0.00 | 0.00 | 0.00 | 96 | 1008.8 |
| 20260506134706 | 76 | 73 | 1.0 | 3.0 | 0.00 | 0.00 | 0.00 | 96 | 1008.8 |
| 20260506134435 | 76 | 82 | 2.0 | 4.0 | 0.00 | 0.00 | 0.00 | 96 | 1008.7 |
| 20260506133435 | 76 | 82 | 2.0 | 5.0 | 0.00 | 0.00 | 0.00 | 96 | 1008.7 |
| 20260506132935 | 76 | 76 | 2.0 | 5.0 | 0.00 | 0.00 | 0.00 | 96 | 1008.7 |
| 20260506132436 | 76 | 78 | 2.0 | 6.0 | 0.00 | 0.00 | 0.00 | 96 | 1008.6 |
| 20260506131935 | 76 | 121 | 3.0 | 6.0 | 0.00 | 0.00 | 0.00 | 96 | 1008.7 |
| 20260506131435 | 76 | 105 | 2.0 | 4.0 | 0.00 | 0.00 | 0.00 | 96 | 1008.7 |
| 20260506130934 | 76 | 101 | 1.0 | 2.0 | 0.00 | 0.00 | 0.00 | 96 | 1008.8 |
| 20260506130439 | 76 | 101 | 0.0 | 2.0 | 0.00 | 0.00 | 0.00 | 96 | 1008.7 |
| 20260506130429 | 76 | 76 | 1.0 | 3.0 | 0.00 | 0.00 | 0.00 | 96 | 1008.7 |
| 20260506125434 | 76 | 76 | 2.0 | 3.0 | 0.00 | 0.00 | 0.00 | 96 | 1008.6 |
| 20260506124935 | 76 | 69 | 1.0 | 3.0 | 0.00 | 0.00 | 0.00 | 96 | 1008.6 |
| 20260506124427 | 76 | 96 | 2.0 | 3.0 | 0.00 | 0.00 | 0.00 | 96 | 1008.6 |
| 20260506123920 | 76 | 93 | 2.0 | 3.0 | 0.00 | 0.00 | 0.00 | 96 | 1008.7 |
| 20260506123415 | 76 | 81 | 2.0 | 3.0 | 0.00 | 0.00 | 0.00 | 96 | 1008.7 |
| 20260506122908 | 76 | 81 | 2.0 | 3.0 | 0.00 | 0.00 | 0.00 | 96 | 1008.7 |
| 20260506122403 | 76 | 98 | 2.0 | 4.0 | 0.00 | 0.00 | 0.00 | 96 | 1008.5 |
| 20260506121902 | 76 | 105 | 2.0 | 6.0 | 0.00 | 0.00 | 0.00 | 96 | 1008.4 |
| 20260506121401 | 76 | 103 | 3.0 | 6.0 | 0.00 | 0.00 | 0.00 | 96 | 1008.3 |
| 20260506120906 | 76 | 123 | 3.0 | 6.0 | 0.00 | 0.00 | 0.00 | 96 | 1008.5 |
| 20260506120406 | 76 | 0 | 3.0 | 6.0 | 0.00 | 0.00 | 0.00 | 96 | 1008.4 |
| 20260506115906 | 76 | 108 | 3.0 | 6.0 | 0.00 | 0.00 | 0.00 | 96 | 1008.4 |
| 20260506115628 | 76 | 124 | 3.0 | 6.0 | 0.00 | 0.00 | 0.00 | 96 | 1008.4 |
| 20260506115132 | 76 | 124 | 3.0 | 6.0 | 0.00 | 0.00 | 0.00 | 96 | 1008.3 |
| 20260506114853 | 76 | 147 | 3.0 | 6.0 | 0.00 | 0.00 | 0.00 | 96 | 1008.3 |
| 20260506113907 | 76 | 128 | 4.0 | 7.0 | 0.00 | 0.00 | 0.00 | 96 | 1008.2 |
| 20260506113407 | 76 | 130 | 4.0 | 9.0 | 0.00 | 0.00 | 0.00 | 96 | 1008.1 |
| 20260506112903 | 76 | 124 | 4.0 | 9.0 | 0.00 | 0.00 | 0.00 | 96 | 1008.2 |
| 20260506112401 | 76 | 139 | 5.0 | 10.0 | 0.00 | 0.00 | 0.00 | 96 | 1008.2 |
| 20260506111901 | 76 | 0 | 5.0 | 10.0 | 0.00 | 0.00 | 0.00 | 96 | 1008.2 |
| 20260506111401 | 76 | 0 | 4.0 | 8.0 | 0.00 | 0.00 | 0.00 | 96 | 1008.1 |
| 20260506110900 | 76 | 152 | 4.0 | 7.0 | 0.00 | 0.00 | 0.00 | 96 | 1008.1 |
| 20260506110401 | 76 | 158 | 4.0 | 9.0 | 0.00 | 0.00 | 0.00 | 96 | 1008.2 |
| 20260506105902 | 76 | 138 | 4.0 | 9.0 | 0.00 | 0.00 | 0.00 | 96 | 1008.2 |
| 20260506105400 | 76 | 0 | 4.0 | 8.0 | 0.00 | 0.00 | 0.00 | 96 | 1008.1 |
| 20260506104902 | 76 | 0 | 3.0 | 8.0 | 0.00 | 0.00 | 0.00 | 96 | 1008.1 |
| 20260506104858 | 76 | 0 | 3.0 | 5.0 | 0.00 | 0.00 | 0.00 | 96 | 1008.1 |
| 20260506103901 | 75 | 161 | 3.0 | 6.0 | 0.00 | 0.00 | 0.00 | 96 | 1008.1 |
| 20260506103628 | 75 | 0 | 3.0 | 6.0 | 0.00 | 0.00 | 0.00 | 96 | 1007.9 |
| 20260506103123 | 75 | 137 | 4.0 | 7.0 | 0.00 | 0.00 | 0.00 | 96 | 1007.9 |
| 20260506102400 | 75 | 146 | 4.0 | 7.0 | 0.00 | 0.00 | 0.00 | 96 | 1007.8 |
| 20260506101901 | 75 | 118 | 3.0 | 6.0 | 0.00 | 0.00 | 0.00 | 96 | 1007.8 |
| 20260506101628 | 75 | 134 | 3.0 | 7.0 | 0.00 | 0.00 | 0.00 | 96 | 1007.9 |
| 20260506100901 | 75 | 128 | 3.0 | 7.0 | 0.00 | 0.00 | 0.00 | 96 | 1007.8 |
| 20260506100401 | 75 | 123 | 2.0 | 4.0 | 0.00 | 0.00 | 0.00 | 96 | 1007.6 |
| 20260506095901 | 75 | 132 | 3.0 | 5.0 | 0.00 | 0.00 | 0.00 | 96 | 1007.7 |
| 20260506095401 | 75 | 139 | 2.0 | 5.0 | 0.00 | 0.00 | 0.00 | 96 | 1007.8 |
| 20260506094901 | 75 | 127 | 2.0 | 5.0 | 0.00 | 0.00 | 0.00 | 96 | 1007.7 |
| 20260506094636 | 75 | 142 | 2.0 | 5.0 | 0.00 | 0.00 | 0.00 | 96 | 1007.7 |
| 20260506093901 | 75 | 136 | 3.0 | 4.0 | 0.00 | 0.00 | 0.00 | 96 | 1007.7 |
| 20260506093401 | 75 | 128 | 3.0 | 6.0 | 0.00 | 0.00 | 0.00 | 96 | 1007.7 |
| 20260506092901 | 75 | 128 | 3.0 | 6.0 | 0.00 | 0.00 | 0.00 | 96 | 1007.7 |
| 20260506092628 | 75 | 141 | 3.0 | 7.0 | 0.00 | 0.00 | 0.00 | 96 | 1007.7 |
| 20260506091900 | 75 | 145 | 3.0 | 7.0 | 0.00 | 0.00 | 0.00 | 96 | 1007.6 |
| 20260506091401 | 75 | 0 | 4.0 | 8.0 | 0.00 | 0.00 | 0.00 | 96 | 1007.5 |
| 20260506090901 | 75 | 130 | 4.0 | 8.0 | 0.00 | 0.00 | 0.00 | 96 | 1007.5 |
| 20260506090401 | 75 | 133 | 3.0 | 6.0 | 0.00 | 0.00 | 0.00 | 96 | 1007.4 |
| 20260506090134 | 75 | 134 | 3.0 | 6.0 | 0.00 | 0.00 | 0.00 | 96 | 1007.5 |
| 20260506085403 | 75 | 128 | 4.0 | 8.0 | 0.00 | 0.00 | 0.00 | 96 | 1007.6 |
| 20260506085359 | 75 | 126 | 5.0 | 8.0 | 0.00 | 0.00 | 0.00 | 96 | 1007.6 |
| 20260506084406 | 75 | 131 | 5.0 | 9.0 | 0.00 | 0.00 | 0.00 | 96 | 1007.4 |
| 20260506083906 | 75 | 146 | 5.0 | 10.0 | 0.00 | 0.00 | 0.00 | 95 | 1007.4 |
| 20260506083407 | 75 | 130 | 5.0 | 10.0 | 0.00 | 0.00 | 0.00 | 95 | 1007.3 |
| 20260506082907 | 75 | 151 | 4.0 | 9.0 | 0.00 | 0.00 | 0.00 | 95 | 1007.6 |
| 20260506082406 | 75 | 130 | 4.0 | 8.0 | 0.00 | 0.00 | 0.00 | 95 | 1007.7 |
| 20260506081906 | 76 | 138 | 4.0 | 8.0 | 0.00 | 0.00 | 0.00 | 95 | 1007.7 |
| 20260506081406 | 76 | 143 | 5.0 | 8.0 | 0.00 | 0.00 | 0.00 | 95 | 1007.7 |
| 20260506080906 | 76 | 133 | 5.0 | 9.0 | 0.00 | 0.00 | 0.00 | 95 | 1007.8 |
| 20260506080405 | 76 | 156 | 5.0 | 9.0 | 0.00 | 0.00 | 0.00 | 95 | 1007.8 |
| 20260506073407 | 76 | 163 | 3.0 | 7.0 | 0.00 | 0.00 | 0.00 | 93 | 1008.3 |
| 20260506072906 | 76 | 173 | 4.0 | 8.0 | 0.00 | 0.00 | 0.00 | 93 | 1008.2 |
| 20260506072406 | 77 | 144 | 4.0 | 8.0 | 0.00 | 0.00 | 0.00 | 93 | 1008.2 |
| 20260506071906 | 77 | 132 | 4.0 | 8.0 | 0.00 | 0.00 | 0.00 | 92 | 1008.4 |
| 20260506071406 | 77 | 138 | 4.0 | 8.0 | 0.00 | 0.00 | 0.00 | 92 | 1008.4 |
| 20260506071130 | 77 | 151 | 4.0 | 9.0 | 0.00 | 0.00 | 0.00 | 93 | 1008.5 |
| 20260506070630 | 77 | 157 | 4.0 | 10.0 | 0.00 | 0.00 | 0.00 | 93 | 1008.7 |
| 20260506062402 | 77 | 167 | 5.0 | 8.0 | 0.00 | 0.00 | 0.00 | 93 | 1009.0 |
| 20260506061902 | 77 | 171 | 5.0 | 9.0 | 0.00 | 0.00 | 0.00 | 93 | 1008.9 |
| 20260506061402 | 77 | 146 | 5.0 | 9.0 | 0.00 | 0.00 | 0.00 | 93 | 1009.0 |
| 20260506060902 | 77 | 173 | 6.0 | 10.0 | 0.00 | 0.00 | 0.00 | 93 | 1008.9 |
| 20260506060359 | 77 | 134 | 6.0 | 13.0 | 0.00 | 0.00 | 0.00 | 93 | 1008.8 |
| 20260506051344 | 77 | 128 | 8.0 | 14.0 | 0.00 | 0.00 | 0.00 | 92 | 1008.5 |
| 20260506050845 | 77 | 148 | 7.0 | 11.0 | 0.00 | 0.00 | 0.00 | 92 | 1008.4 |
| 20260506050348 | 77 | 161 | 7.0 | 12.0 | 0.00 | 0.00 | 0.00 | 92 | 1008.4 |
| 20260506044843 | 77 | 146 | 7.0 | 13.0 | 0.00 | 0.00 | 0.00 | 91 | 1008.4 |
| 20260506044610 | 77 | 157 | 8.0 | 13.0 | 0.00 | 0.00 | 0.00 | 91 | 1008.4 |
| 20260506044111 | 77 | 171 | 8.0 | 13.0 | 0.00 | 0.00 | 0.00 | 91 | 1008.5 |
| 20260506043342 | 77 | 142 | 7.0 | 13.0 | 0.00 | 0.00 | 0.00 | 91 | 1008.5 |
| 20260506042842 | 77 | 144 | 7.0 | 13.0 | 0.00 | 0.00 | 0.00 | 91 | 1008.4 |
| 20260506042343 | 77 | 164 | 7.0 | 13.0 | 0.00 | 0.00 | 0.00 | 91 | 1008.4 |
| 20260506042113 | 77 | 148 | 8.0 | 13.0 | 0.00 | 0.00 | 0.00 | 91 | 1008.5 |
| 20260506041839 | 77 | 184 | 7.0 | 14.0 | 0.00 | 0.00 | 0.00 | 91 | 1008.4 |
| 20260506040843 | 77 | 182 | 8.0 | 14.0 | 0.00 | 0.00 | 0.00 | 91 | 1008.4 |
| 20260506040343 | 78 | 155 | 9.0 | 14.0 | 0.00 | 0.00 | 0.00 | 91 | 1008.4 |
| 20260506035842 | 78 | 139 | 9.0 | 16.0 | 0.00 | 0.00 | 0.00 | 91 | 1008.4 |
| 20260506035343 | 78 | 140 | 9.0 | 16.0 | 0.00 | 0.00 | 0.00 | 91 | 1008.4 |
| 20260506034843 | 78 | 130 | 8.0 | 15.0 | 0.00 | 0.00 | 0.00 | 91 | 1008.3 |
| 20260506034339 | 78 | 153 | 8.0 | 17.0 | 0.00 | 0.00 | 0.00 | 90 | 1008.4 |
| 20260506033838 | 78 | 161 | 8.0 | 17.0 | 0.00 | 0.00 | 0.00 | 90 | 1008.5 |
| 20260506033339 | 78 | 171 | 8.0 | 13.0 | 0.00 | 0.00 | 0.00 | 90 | 1008.4 |
| 20260506032838 | 78 | 158 | 8.0 | 14.0 | 0.00 | 0.00 | 0.00 | 90 | 1008.5 |
| 20260506032604 | 78 | 91 | 7.0 | 14.0 | 0.00 | 0.00 | 0.00 | 90 | 1008.3 |
| 20260506031838 | 78 | 138 | 8.0 | 14.0 | 0.00 | 0.00 | 0.00 | 90 | 1008.4 |
| 20260506031337 | 78 | 155 | 8.0 | 14.0 | 0.00 | 0.00 | 0.00 | 90 | 1008.4 |
| 20260506031105 | 78 | 165 | 8.0 | 14.0 | 0.00 | 0.00 | 0.00 | 90 | 1008.3 |
| 20260506030335 | 77 | 138 | 8.0 | 14.0 | 0.00 | 0.00 | 0.00 | 90 | 1008.1 |
| 20260506025835 | 78 | 152 | 7.0 | 14.0 | 0.00 | 0.00 | 0.00 | 90 | 1008.1 |
| 20260506025338 | 78 | 153 | 8.0 | 14.0 | 0.00 | 0.00 | 0.00 | 90 | 1007.9 |
| 20260506024835 | 78 | 161 | 9.0 | 17.0 | 0.00 | 0.00 | 0.00 | 90 | 1008.0 |
| 20260506024334 | 78 | 155 | 8.0 | 17.0 | 0.00 | 0.00 | 0.00 | 90 | 1007.8 |
| 20260506023834 | 78 | 168 | 7.0 | 15.0 | 0.00 | 0.00 | 0.00 | 91 | 1007.8 |
| 20260506023333 | 77 | 155 | 8.0 | 15.0 | 0.00 | 0.00 | 0.00 | 90 | 1007.7 |
| 20260506023051 | 78 | 157 | 7.0 | 14.0 | 0.00 | 0.00 | 0.00 | 90 | 1007.5 |
| 20260506023035 | 78 | 155 | 7.0 | 14.0 | 0.00 | 0.00 | 0.00 | 91 | 1007.6 |
| 20260506021829 | 77 | 148 | 8.0 | 15.0 | 0.00 | 0.00 | 0.00 | 90 | 1007.4 |
| 20260506021553 | 77 | 127 | 8.0 | 15.0 | 0.00 | 0.00 | 0.00 | 90 | 1007.3 |
| 20260506020830 | 77 | 150 | 8.0 | 14.0 | 0.00 | 0.00 | 0.00 | 90 | 1007.3 |
| 20260506020330 | 77 | 161 | 8.0 | 17.0 | 0.00 | 0.00 | 0.00 | 90 | 1007.2 |
| 20260506015831 | 77 | 130 | 8.0 | 17.0 | 0.00 | 0.00 | 0.00 | 90 | 1007.2 |
| 20260506015558 | 77 | 130 | 7.0 | 15.0 | 0.00 | 0.00 | 0.00 | 91 | 1007.1 |
| 20260506014832 | 77 | 140 | 7.0 | 12.0 | 0.00 | 0.00 | 0.00 | 91 | 1007.1 |
| 20260506014331 | 77 | 182 | 6.0 | 12.0 | 0.00 | 0.00 | 0.00 | 91 | 1006.9 |
| 20260506013830 | 77 | 148 | 6.0 | 12.0 | 0.00 | 0.00 | 0.00 | 91 | 1006.8 |
| 20260506013335 | 77 | 142 | 7.0 | 10.0 | 0.00 | 0.00 | 0.00 | 91 | 1006.6 |
| 20260506012833 | 77 | 145 | 7.0 | 12.0 | 0.00 | 0.00 | 0.00 | 90 | 1006.4 |
| 20260506012335 | 77 | 150 | 7.0 | 12.0 | 0.00 | 0.00 | 0.00 | 90 | 1006.4 |
| 20260506011833 | 78 | 144 | 7.0 | 11.0 | 0.00 | 0.00 | 0.00 | 90 | 1006.2 |
| 20260506011334 | 78 | 140 | 7.0 | 11.0 | 0.00 | 0.00 | 0.00 | 90 | 1006.3 |
| 20260506010828 | 78 | 155 | 7.0 | 14.0 | 0.00 | 0.00 | 0.00 | 89 | 1006.2 |
| 20260506010322 | 78 | 130 | 7.0 | 14.0 | 0.00 | 0.00 | 0.00 | 89 | 1006.1 |
| 20260506005823 | 78 | 125 | 8.0 | 14.0 | 0.00 | 0.00 | 0.00 | 88 | 1006.2 |
| 20260506005310 | 78 | 158 | 9.0 | 15.0 | 0.00 | 0.00 | 0.00 | 88 | 1006.1 |
| 20260506004810 | 78 | 148 | 8.0 | 16.0 | 0.00 | 0.00 | 0.00 | 87 | 1006.0 |
| 20260506004308 | 79 | 119 | 7.0 | 16.0 | 0.00 | 0.00 | 0.00 | 87 | 1006.2 |
| 20260506003807 | 79 | 138 | 7.0 | 13.0 | 0.00 | 0.00 | 0.00 | 86 | 1006.0 |
| 20260506003531 | 79 | 160 | 8.0 | 14.0 | 0.00 | 0.00 | 0.00 | 86 | 1006.1 |
| 20260506003037 | 79 | 132 | 9.0 | 21.0 | 0.00 | 0.00 | 0.00 | 86 | 1006.1 |
| 20260506002306 | 80 | 171 | 9.0 | 21.0 | 0.00 | 0.00 | 0.00 | 85 | 1006.0 |
| 20260506002035 | 80 | 146 | 8.0 | 17.0 | 0.00 | 0.00 | 0.00 | 85 | 1005.9 |
| 20260506002013 | 80 | 171 | 9.0 | 17.0 | 0.00 | 0.00 | 0.00 | 85 | 1006.0 |
| 20260506000802 | 80 | 157 | 8.0 | 15.0 | 0.00 | 0.00 | 0.00 | 85 | 1006.0 |
| 20260506000303 | 80 | 165 | 9.0 | 21.0 | 0.00 | 0.00 | 0.00 | 84 | 1006.0 |
| 20260505235802 | 80 | 142 | 9.0 | 21.0 | 0.00 | 0.00 | 0.00 | 84 | 1005.9 |
| 20260505235529 | 80 | 121 | 9.0 | 20.0 | 0.00 | 0.00 | 0.00 | 85 | 1006.0 |
| 20260505234802 | 80 | 174 | 10.0 | 20.0 | 0.00 | 0.00 | 0.00 | 84 | 1006.0 |
| 20260505234756 | 80 | 184 | 8.0 | 17.0 | 0.00 | 0.00 | 0.00 | 84 | 1006.1 |
| 20260505233805 | 80 | 167 | 7.0 | 12.0 | 0.00 | 0.00 | 0.00 | 84 | 1006.2 |
| 20260505233305 | 80 | 144 | 7.0 | 13.0 | 0.00 | 0.00 | 0.00 | 84 | 1006.2 |
| 20260505232805 | 80 | 153 | 8.0 | 15.0 | 0.00 | 0.00 | 0.00 | 84 | 1006.2 |
| 20260505232305 | 80 | 142 | 9.0 | 16.0 | 0.00 | 0.00 | 0.00 | 83 | 1006.3 |
| 20260505231802 | 80 | 190 | 8.0 | 16.0 | 0.00 | 0.00 | 0.00 | 83 | 1006.3 |
| 20260505231301 | 81 | 180 | 8.0 | 17.0 | 0.00 | 0.00 | 0.00 | 83 | 1006.1 |
| 20260505230801 | 81 | 201 | 9.0 | 17.0 | 0.00 | 0.00 | 0.00 | 83 | 1006.2 |
| 20260505230301 | 81 | 162 | 9.0 | 14.0 | 0.00 | 0.00 | 0.00 | 83 | 1006.2 |
| 20260505225801 | 81 | 126 | 8.0 | 15.0 | 0.00 | 0.00 | 0.00 | 83 | 1006.5 |
| 20260505225301 | 81 | 184 | 8.0 | 15.0 | 0.00 | 0.00 | 0.00 | 83 | 1006.5 |
| 20260505224802 | 81 | 154 | 7.0 | 15.0 | 0.00 | 0.00 | 0.00 | 82 | 1006.4 |
| 20260505224301 | 81 | 178 | 8.0 | 14.0 | 0.00 | 0.00 | 0.00 | 83 | 1006.4 |
| 20260505224036 | 81 | 98 | 9.0 | 18.0 | 0.00 | 0.00 | 0.00 | 82 | 1006.4 |
| 20260505223755 | 81 | 156 | 8.0 | 18.0 | 0.00 | 0.00 | 0.00 | 82 | 1006.3 |
| 20260505222801 | 81 | 0 | 8.0 | 19.0 | 0.00 | 0.00 | 0.00 | 82 | 1006.4 |
| 20260505222300 | 81 | 176 | 9.0 | 19.0 | 0.00 | 0.00 | 0.00 | 82 | 1006.4 |
| 20260505221804 | 81 | 195 | 8.0 | 16.0 | 0.00 | 0.00 | 0.00 | 82 | 1006.4 |
| 20260505221303 | 81 | 185 | 7.0 | 16.0 | 0.00 | 0.00 | 0.00 | 82 | 1006.4 |
| 20260505220808 | 81 | 147 | 8.0 | 20.0 | 0.00 | 0.00 | 0.00 | 82 | 1006.6 |
| 20260505220801 | 81 | 0 | 8.0 | 20.0 | 0.00 | 0.00 | 0.00 | 82 | 1006.5 |
| 20260505215800 | 81 | 193 | 7.0 | 15.0 | 0.00 | 0.00 | 0.00 | 82 | 1006.6 |
| 20260505215253 | 81 | 166 | 8.0 | 18.0 | 0.00 | 0.00 | 0.00 | 82 | 1006.8 |